DUCHIFAT-1

Last updated on Mon Nov 03 2025 00:03:21 GMT+0000 (Coordinated Universal Time)

1 40021U 14033M 25306.32410552 .00033877 00000+0 94313-3 0 9996 2 40021 98.0859 334.0413 0007932 153.3718 206.7933 15.36714206620637
UTC large
Height (km)
Speed (km/s)
/
Latitude / Longitude
Inclination (degrees)
Orbital Period (minutes)
Azimuth
Elevation
Range (km)
Doppler Factor

Next 0 passes for location: London (51.5072 / 0.1276)

Sorry there are no passes over London.